Home   Weather   Pully   Past weeks

Flag for Switzerland Past Weather in Pully, Vaud, Switzerland — Yesterday and Last 2 Weeks

Now
16 °F

Cold.


Feels Like: 7 °F
Forecast: 19 / 25 °F
Wind: 6 mph from South

Location: Aigle

Current Time: Jan 17, 2017 at 9:52:25 am

Latest Report: Jan 17, 2017 at 9:00 am


Visibility: N/A

Pressure: 30.30 "Hg

Humidity: 75%

Dew Point: 9 °F

Location of PullyLocation

Past Weather in Pully — Graph

°F

Pully Temperature Yesterday

Maximum temperature yesterday: 31 °F (at 4:00 pm)
Minimum temperature yesterday: 16 °F (at 12:00 am)
Average temperature yesterday: 24 °F

High & Low Weather Summary for the Past Weeks

 TemperatureHumidityPressure
High46 °F (Jan 13, 2:00 am)100% (Jan 8, 6:00 pm)30.66 "Hg (Jan 8, 6:00 pm)
Low7 °F (Jan 17, 6:00 am)47% (Jan 13, 3:00 am)29.67 "Hg (Jan 13, 12:00 am)
Average30 °F83%30.25 "Hg
* Reported Jan 2 8:00 am — Jan 17 8:00 am, Pully, Weather by CustomWeather, © 2017

Note: Actual official high and low records may vary slightly from our data, if they occured in-between our weather recording intervals... More about our weather records

Advertising

Pully Weather History for the Previous 24 Hours

Scroll right to see more
 ConditionsComfort  
Time TempWeatherWind HumidityBarometerVisibility
8:00 am
Tue, Jan 17
17 °FCold.7 mph79%30.29 "HgN/A
7:00 am8 °FPassing clouds.5 mph100%30.31 "Hg10 mi
6:00 am7 °FFrigid.1 mph97%30.30 "HgN/A
5:00 am15 °FCold.3 mph81%30.27 "HgN/A
4:00 am10 °FClear.2 mph100%30.29 "Hg16 mi
3:00 am15 °FCold.2 mph91%30.27 "HgN/A
2:00 am17 °FCold.2 mph79%30.25 "HgN/A
1:00 am17 °FCold.2 mph81%30.25 "HgN/A
12:00 am23 °FCold.3 mph69%30.22 "HgN/A
11:00 pm
Mon, Jan 16
21 °FCold.3 mph76%30.23 "HgN/A
10:00 pm25 °FCold.3 mph71%30.21 "HgN/A
9:00 pm28 °FChilly.9 mph64%30.20 "HgN/A
8:00 pm29 °FChilly.9 mph57%30.19 "HgN/A
7:00 pm28 °FChilly.8 mph61%30.19 "HgN/A
6:00 pm30 °FChilly.12 mph58%30.17 "HgN/A
5:00 pm31 °FChilly.12 mph59%30.16 "HgN/A
4:00 pm31 °FChilly.10 mph57%30.16 "HgN/A
3:00 pm27 °FChilly.1 mph62%30.17 "HgN/A
2:00 pm28 °FChilly.2 mph60%30.18 "HgN/A
1:00 pm26 °FPassing clouds.2 mph62%30.20 "Hg25 mi
12:00 pm25 °FCold.1 mph62%30.22 "HgN/A
11:00 am20 °FCold.5 mph73%30.24 "HgN/A
10:00 am21 °FSunny.8 mph76%30.24 "Hg25 mi
9:00 am18 °FCold.5 mph81%30.24 "HgN/A
Weather by CustomWeather, © 2017

See weather overviewHow to use our weather pages